TimeCST,TemperatureF,Dew PointF,Humidity,Sea Level PressureIn,VisibilityMPH,Wind Direction,Wind SpeedMPH,Gust SpeedMPH,PrecipitationIn,Events,Conditions,WindDirDegrees,DateUTC
12:54 AM,41.0,28.9,62,30.11,10.0,South,13.8,-,N/A,,Clear,170,2013-11-08 06:54:00
1:54 AM,41.0,28.0,60,30.07,10.0,South,13.8,-,N/A,,Clear,180,2013-11-08 07:54:00
2:54 AM,43.0,26.1,51,30.03,10.0,South,15.0,-,N/A,,Clear,180,2013-11-08 08:54:00
3:54 AM,44.1,26.1,49,30.01,10.0,SSW,11.5,-,N/A,,Clear,200,2013-11-08 09:54:00
4:54 AM,41.0,26.1,55,29.99,10.0,South,12.7,-,N/A,,Clear,190,2013-11-08 10:54:00
5:54 AM,39.9,26.1,58,29.98,10.0,South,12.7,-,N/A,,Clear,190,2013-11-08 11:54:00
6:54 AM,39.9,26.1,58,29.97,10.0,SSW,11.5,-,N/A,,Clear,210,2013-11-08 12:54:00
7:54 AM,41.0,27.0,57,29.95,10.0,SSW,15.0,-,N/A,,Clear,210,2013-11-08 13:54:00
8:54 AM,44.1,28.0,53,29.94,10.0,SSW,13.8,-,N/A,,Clear,210,2013-11-08 14:54:00
9:54 AM,48.0,28.9,48,29.93,10.0,SW,13.8,-,N/A,,Clear,220,2013-11-08 15:54:00
10:54 AM,55.0,28.0,35,29.89,10.0,SSW,24.2,31.1,N/A,,Clear,210,2013-11-08 16:54:00
11:54 AM,60.1,30.0,32,29.86,10.0,SW,21.9,-,N/A,,Clear,220,2013-11-08 17:54:00
12:54 PM,66.0,30.9,27,29.79,10.0,SSW,20.7,32.2,N/A,,Clear,210,2013-11-08 18:54:00
1:54 PM,70.0,30.9,24,29.77,10.0,SSW,20.7,25.3,N/A,,Clear,210,2013-11-08 19:54:00
2:54 PM,71.1,32.0,24,29.76,10.0,SSW,18.4,-,N/A,,Clear,210,2013-11-08 20:54:00
3:54 PM,72.0,30.9,22,29.76,10.0,SW,12.7,-,N/A,,Clear,220,2013-11-08 21:54:00
4:54 PM,68.0,33.1,27,29.77,10.0,South,10.4,-,N/A,,Clear,180,2013-11-08 22:54:00
5:54 PM,57.9,33.1,39,29.80,10.0,SSE,8.1,-,N/A,,Clear,150,2013-11-08 23:54:00
6:54 PM,55.0,32.0,42,29.84,10.0,ENE,9.2,-,N/A,,Clear,70,2013-11-09 00:54:00
7:54 PM,54.0,32.0,43,29.86,10.0,East,6.9,-,N/A,,Clear,90,2013-11-09 01:54:00
8:54 PM,48.0,34.0,58,29.88,10.0,East,10.4,-,N/A,,Clear,80,2013-11-09 02:54:00
9:54 PM,50.0,32.0,50,29.88,10.0,ESE,12.7,-,N/A,,Clear,120,2013-11-09 03:54:00
10:54 PM,51.1,30.9,46,29.87,10.0,SE,15.0,-,N/A,,Clear,140,2013-11-09 04:54:00
11:54 PM,45.0,32.0,60,29.88,10.0,ESE,10.4,-,N/A,,Clear,110,2013-11-09 05:54:00